Location: Allens Landing
(37.8284°N, 89.7284°W)
Time: 05:40:19
(UTC+00:00)

Envisat - Visible Passes

Search period start: 11 October 2024 00:00
Search period end: 21 October 2024 00:00
Orbit: 762 x 764 km, 98.3° (Epoch: 10 October)

Date Brightness Start Highest point End Pass type
(mag) Time Alt. Az. Time Alt. Az. Time Alt. Az.
11 Oct 5.0 09:27:34 10° N 09:29:00 19° N 09:29:00 19° N visible
12 Oct 5.5 08:50:04 10° NNE 08:50:56 15° NNE 08:50:56 15° NNE visible
12 Oct 5.1 10:30:37 10° NNW 10:31:04 11° NNW 10:31:04 11° NNW visible
13 Oct 5.0 09:51:51 10° N 09:53:00 16° NNW 09:53:00 16° NNW visible
14 Oct 5.3 09:13:59 10° N 09:14:56 16° N 09:14:56 16° N visible
15 Oct 5.9 08:36:42 10° NNE 08:36:51 11° NNE 08:36:51 11° NNE visible
15 Oct 5.2 10:16:29 10° NNW 10:16:59 12° NNW 10:16:59 12° NNW visible
16 Oct 5.2 09:38:07 10° N 09:38:55 14° N 09:38:55 14° N visible
17 Oct 5.6 09:00:27 10° NNE 09:00:51 12° NNE 09:00:51 12° NNE visible
18 Oct 5.3 10:02:31 10° NNW 10:02:54 12° NNW 10:02:54 12° NNW visible
19 Oct 5.5 09:24:26 10° N 09:24:48 12° N 09:24:48 12° N visible
